Wind_Speed
26 26 27 27 27 28 28 27 27 27 27 27 27 27 27 27 28 28 28 28 29 29 28 29 28 28 28 28 28 28 29 29 28 27 27 27 26 26 26 25 25 24 24
27 27 27 27 28 28 29 29 29 28 28 28 29 29 29 29 29 29 30 29 29 28 28 28 29 29 29 29 29 29 29 29 29 29 28 28 28 28 28 27 27 26 25
28 28 28 29 29 30 30 29 29 29 30 30 30 31 31 31 31 30 30 29 29 29 28 28 29 30 30 30 31 30 31 31 30 30 30 30 29 29 29 29 28 27 27
29 28 28 29 30 31 31 30 31 31 31 31 31 31 31 30 31 32 32 31 31 31 30 30 30 30 30 30 31 31 32 32 31 30 29 30 31 30 30 29 29 29 28
28 28 29 30 31 32 32 32 31 32 32 32 32 32 32 31 31 31 31 31 32 32 31 31 30 30 30 30 31 31 32 32 31 31 30 30 30 31 31 30 30 30 29
28 28 29 30 31 31 31 31 32 31 32 33 33 33 32 31 32 31 31 31 31 32 31 31 30 30 30 30 30 31 31 32 32 31 31 31 31 31 31 30 30 31 30
27 28 29 30 31 31 31 31 31 31 31 32 32 32 31 31 31 32 31 31 30 31 31 31 30 31 31 30 31 31 31 33 33 33 32 32 32 32 31 31 30 31 31
26 27 28 29 29 30 30 30 30 30 31 31 31 31 30 31 32 31 31 31 30 31 30 30 30 31 31 31 31 31 30 31 33 34 33 32 32 32 31 31 30 30 31
26 26 26 27 28 29 28 28 28 29 30 30 30 30 29 30 31 31 30 30 30 31 30 30 30 30 31 31 32 32 32 32 32 33 34 34 33 33 32 32 31 31 31
25 25 26 26 27 27 27 28 28 28 28 28 29 29 29 29 30 30 30 30 29 29 30 30 29 30 31 31 32 32 32 34 34 34 34 34 34 34 33 33 33 32 32
25 25 25 26 26 26 26 27 27 27 28 27 27 27 27 28 29 28 28 30 29 29 30 30 29 29 30 30 31 31 33 34 34 33 34 34 34 34 34 34 33 33 33
25 25 26 26 26 26 26 26 27 27 27 26 26 26 26 27 27 27 27 28 28 28 29 29 30 30 30 31 30 31 32 33 33 33 34 34 35 35 35 34 34 34 33
26 26 26 25 25 25 25 26 27 26 26 26 26 26 26 27 26 26 26 27 27 28 29 28 29 30 31 31 31 31 32 33 33 33 34 35 35 36 36 35 35 35 35
24 25 25 25 25 25 25 26 26 26 26 25 25 25 24 24 24 24 25 26 26 26 27 28 28 29 31 31 31 31 32 33 34 34 35 34 35 36 36 37 36 36 36
24 24 24 24 25 24 25 25 25 25 25 24 24 23 22 22 23 23 23 25 25 25 26 27 26 27 28 29 30 30 32 33 33 34 34 34 35 36 36 37 36 36 36
23 23 24 24 24 23 23 24 24 24 24 24 23 21 20 20 21 21 21 21 22 23 24 24 24 24 25 26 28 29 31 31 32 32 33 34 34 34 34 34 34 35 36
22 22 22 23 23 22 22 23 23 23 23 23 22 21 20 20 20 20 20 20 20 22 22 22 22 22 23 24 26 28 29 31 32 32 32 33 33 34 34 35 35 36 36
21 22 22 21 21 21 22 22 22 22 22 22 22 21 20 19 19 18 18 18 19 20 22 23 23 23 23 24 25 26 27 29 30 30 31 31 32 34 34 35 36 36 36
20 21 20 19 19 19 20 21 21 21 21 21 20 19 18 18 18 18 17 17 18 19 21 21 22 23 23 23 24 25 26 27 29 29 30 31 32 34 35 36 35 35 34
19 19 19 18 18 19 19 19 20 20 20 20 19 18 17 17 17 17 17 18 18 18 18 19 21 22 22 22 22 24 25 26 27 28 28 30 31 32 33 34 34 33 33
18 19 18 17 18 18 18 19 19 19 19 19 19 18 17 17 18 17 18 19 20 20 20 21 21 21 22 22 21 22 23 24 25 26 28 29 29 29 30 31 32 32 33
17 17 17 17 18 18 18 19 20 20 20 20 19 19 18 18 17 17 18 19 19 20 20 20 20 20 20 20 20 20 21 22 23 24 25 26 27 27 28 29 30 31 32
16 16 16 17 18 18 19 19 20 20 20 20 20 19 18 18 18 17 18 18 18 19 19 19 19 19 19 19 20 20 20 21 21 23 23 24 25 25 27 27 28 29 30
16 16 17 18 18 18 19 19 19 19 20 20 19 19 19 19 19 18 18 18 19 19 19 19 19 18 18 18 19 19 19 19 20 21 21 22 24 24 25 26 27 28 29
16 16 17 17 18 18 18 18 18 19 19 19 20 20 20 20 19 19 19 19 19 19 19 19 18 18 18 18 18 18 18 19 19 20 21 21 22 23 24 25 27 27 28
17 17 17 17 17 17 18 18 19 20 20 20 20 21 21 21 20 19 19 19 19 19 19 19 18 19 18 18 18 19 19 20 20 21 22 23 23 23 24 25 26 27 27
Wind_Direction
288 289 288 288 289 289 289 288 288 288 286 285 283 281 279 277 276 275 272 270 267 265 264 262 261 259 258 256 255 254 251 249 247 246 247 246 246 245 244 243 242 242 243
291 290 289 288 289 289 288 288 287 286 285 284 283 281 279 277 275 273 271 270 268 265 264 262 261 261 260 257 255 254 251 248 246 246 246 246 246 246 245 244 242 242 244
291 291 290 288 287 287 287 288 287 286 285 285 284 281 278 277 275 273 272 271 269 266 265 264 264 262 259 258 256 253 251 248 247 247 247 246 246 246 245 244 241 242 244
291 291 291 289 288 287 287 286 286 285 284 284 283 282 280 278 278 275 272 271 269 266 266 264 264 262 260 258 257 254 251 248 247 247 248 247 246 244 245 243 242 243 244
292 290 291 292 292 291 288 287 286 286 285 284 283 282 280 278 279 277 273 271 269 265 265 263 263 263 260 258 256 254 251 249 247 246 245 245 246 246 244 244 244 244 245
294 293 293 292 292 292 291 289 287 287 286 284 282 281 279 278 277 276 274 272 269 266 265 263 261 262 260 258 256 254 251 248 246 245 245 245 246 246 245 244 244 245 246
297 297 296 294 292 292 292 292 290 288 286 285 283 281 278 277 277 277 274 273 270 267 265 262 260 261 259 257 256 254 251 249 246 245 247 246 246 246 246 245 246 247 246
299 298 298 296 294 294 293 293 291 291 288 285 284 282 280 278 276 277 274 272 271 269 267 264 262 261 259 256 254 252 251 250 248 248 248 248 247 245 245 246 247 247 246
301 301 301 299 297 297 297 296 296 295 292 287 284 283 282 280 279 277 274 272 272 269 267 265 263 260 258 255 254 254 251 250 249 248 247 248 248 247 247 247 248 248 247
301 302 302 303 300 298 299 300 299 298 296 292 288 286 284 280 278 275 274 272 272 270 268 268 265 261 259 255 254 253 251 250 249 249 248 249 248 248 248 249 250 249 248
300 301 304 304 304 303 303 303 303 302 299 296 292 290 286 282 279 275 274 271 270 269 267 265 264 262 258 255 253 252 250 249 249 251 250 250 249 249 249 249 250 249 248
300 302 306 307 306 306 306 305 303 304 302 299 295 291 287 284 280 276 275 273 272 270 267 264 261 260 258 255 251 252 251 250 249 250 250 250 250 250 248 249 250 249 249
300 303 305 308 308 307 308 307 305 305 303 300 298 295 290 286 284 279 276 275 273 271 267 265 262 259 257 255 252 252 252 251 250 251 251 251 251 250 250 250 251 250 249
302 305 307 309 309 309 310 309 308 308 307 304 300 298 294 289 287 284 279 277 275 273 271 268 264 261 261 258 255 253 254 253 253 253 251 251 250 251 251 251 251 250 249
304 306 308 309 309 309 310 311 311 311 309 307 304 301 298 294 291 286 281 278 277 275 272 270 265 263 264 262 257 255 254 253 253 252 252 251 249 249 252 253 253 251 251
305 304 306 307 308 309 310 310 311 313 312 308 304 301 298 296 294 290 284 281 280 276 274 269 267 265 266 263 259 255 253 253 254 254 254 252 252 253 252 252 253 254 253
306 308 309 309 307 309 310 311 311 312 312 311 308 303 299 298 298 294 288 283 281 278 275 270 268 267 269 266 262 258 258 255 255 254 255 256 254 255 253 252 253 253 253
309 311 312 313 311 311 311 312 312 312 313 312 309 306 303 301 300 298 292 284 282 279 277 273 270 270 270 268 265 263 261 259 257 255 255 255 254 254 253 253 253 251 252
315 315 315 316 315 315 315 315 314 315 315 315 314 310 307 305 304 299 293 288 284 282 281 276 275 273 272 269 265 265 264 261 259 257 256 255 256 255 255 253 251 250 250
317 320 319 318 317 317 319 320 320 321 320 320 318 315 312 310 309 304 299 293 291 287 284 283 280 275 272 271 269 268 265 262 260 258 257 256 256 256 256 254 251 249 249
319 321 321 321 321 321 323 324 324 324 324 322 322 320 317 312 310 307 303 297 292 288 284 284 283 279 276 273 272 270 266 263 261 259 258 256 256 256 255 254 250 249 250
324 325 324 323 323 323 324 325 325 325 326 325 323 322 318 314 312 310 306 302 295 292 288 286 286 285 281 275 274 272 270 266 264 261 258 255 255 256 256 253 250 249 249
325 326 326 325 325 325 324 324 324 324 324 324 323 322 321 318 314 312 309 306 300 296 294 290 287 284 281 278 274 272 271 269 268 265 261 260 257 257 256 252 250 249 247
327 328 327 326 327 326 326 327 326 325 326 327 326 324 322 321 319 314 310 307 301 298 295 293 289 284 281 280 276 271 270 268 267 265 264 262 259 258 256 253 250 249 248
330 329 328 328 327 328 328 331 330 330 329 328 325 322 321 320 318 315 312 308 304 299 295 293 290 285 280 277 275 274 272 269 266 265 263 262 261 259 256 253 250 248 248
332 333 332 332 331 330 330 331 332 330 328 327 326 326 324 323 321 316 314 309 304 300 295 292 289 285 282 280 278 274 271 269 267 265 264 262 262 260 258 255 252 250 249
Height
5847 5845 5843 5842 5840 5838 5836 5834 5832 5831 5829 5828 5826 5825 5824 5822 5821 5820 5819 5819 5819 5818 5818 5818 5819 5819 5820 5821 5822 5823 5824 5826 5828 5830 5832 5834 5835 5837 5839 5841 5842 5844 5846
5842 5840 5838 5836 5834 5832 5830 5828 5826 5824 5822 5821 5819 5818 5817 5815 5814 5813 5812 5811 5811 5811 5811 5811 5811 5812 5813 5814 5815 5816 5817 5819 5821 5823 5825 5827 5829 5831 5833 5835 5837 5838 5840
5836 5834 5832 5830 5828 5825 5823 5821 5819 5817 5815 5813 5812 5810 5809 5808 5806 5805 5804 5804 5804 5804 5804 5804 5804 5804 5805 5806 5807 5808 5810 5812 5814 5816 5818 5820 5822 5824 5826 5828 5830 5832 5834
5830 5828 5826 5824 5821 5819 5817 5815 5812 5810 5808 5806 5804 5803 5801 5800 5798 5797 5796 5796 5796 5795 5796 5796 5796 5797 5797 5798 5799 5801 5802 5804 5806 5809 5811 5813 5815 5817 5819 5822 5824 5826 5828
5825 5822 5820 5817 5815 5812 5810 5807 5805 5802 5800 5798 5796 5795 5793 5791 5790 5789 5788 5788 5787 5787 5787 5788 5789 5789 5789 5790 5791 5793 5794 5796 5798 5801 5803 5805 5808 5810 5812 5815 5817 5819 5821
5819 5816 5813 5811 5808 5805 5802 5800 5797 5795 5792 5790 5788 5787 5785 5783 5782 5780 5779 5779 5779 5779 5779 5780 5781 5781 5782 5782 5783 5785 5786 5788 5791 5793 5796 5798 5800 5802 5805 5807 5809 5811 5814
5813 5810 5807 5804 5801 5798 5795 5793 5789 5787 5784 5781 5780 5778 5777 5775 5774 5772 5771 5771 5770 5770 5771 5771 5772 5773 5773 5774 5775 5777 5778 5780 5783 5785 5788 5790 5792 5795 5797 5800 5802 5804 5806
5807 5804 5801 5798 5795 5792 5789 5785 5782 5778 5776 5773 5771 5769 5768 5768 5765 5764 5763 5762 5762 5762 5762 5763 5764 5764 5765 5766 5767 5769 5771 5773 5775 5777 5780 5782 5784 5787 5790 5792 5795 5797 5799
5801 5799 5795 5792 5788 5785 5781 5778 5774 5771 5768 5765 5763 5761 5759 5758 5757 5757 5756 5755 5754 5754 5754 5755 5755 5756 5757 5758 5759 5761 5763 5765 5767 5769 5772 5774 5776 5779 5782 5784 5787 5789 5791
5796 5793 5789 5786 5782 5778 5775 5771 5768 5764 5760 5757 5755 5753 5751 5750 5749 5749 5748 5747 5747 5746 5746 5747 5747 5748 5749 5750 5751 5753 5755 5757 5759 5761 5764 5766 5768 5771 5773 5776 5778 5781 5783
5791 5787 5784 5780 5776 5772 5769 5765 5761 5757 5754 5751 5748 5746 5744 5742 5741 5740 5740 5740 5739 5739 5738 5739 5739 5740 5741 5742 5743 5745 5747 5749 5752 5754 5756 5758 5760 5762 5765 5767 5770 5772 5774
5785 5782 5778 5774 5770 5767 5763 5759 5755 5752 5748 5744 5741 5739 5737 5735 5734 5732 5732 5731 5731 5731 5730 5731 5732 5732 5733 5734 5736 5737 5739 5742 5744 5746 5748 5750 5752 5754 5756 5759 5761 5763 5765
5780 5777 5773 5769 5765 5761 5757 5753 5750 5746 5742 5739 5735 5732 5730 5729 5726 5725 5724 5724 5723 5723 5723 5723 5724 5724 5725 5726 5728 5729 5731 5733 5736 5737 5739 5741 5743 5746 5748 5750 5752 5754 5757
5774 5771 5767 5763 5759 5756 5752 5748 5744 5740 5736 5733 5730 5726 5723 5722 5720 5718 5717 5716 5716 5716 5715 5715 5716 5716 5717 5718 5720 5721 5723 5725 5727 5729 5731 5732 5734 5736 5739 5741 5743 5745 5748
5769 5765 5761 5758 5754 5750 5746 5743 5739 5735 5731 5727 5724 5721 5718 5716 5714 5712 5711 5710 5709 5709 5708 5708 5708 5709 5709 5710 5711 5713 5715 5716 5718 5720 5722 5723 5725 5727 5729 5732 5734 5736 5738
5763 5759 5755 5752 5748 5745 5741 5737 5734 5730 5726 5722 5718 5715 5713 5710 5708 5706 5705 5704 5703 5702 5702 5701 5701 5701 5702 5702 5703 5704 5706 5707 5709 5710 5712 5715 5716 5718 5720 5722 5725 5727 5729
5757 5753 5750 5746 5743 5739 5736 5732 5729 5725 5721 5717 5714 5711 5708 5705 5703 5701 5699 5698 5697 5697 5696 5695 5694 5694 5695 5695 5695 5696 5697 5699 5700 5702 5703 5705 5707 5709 5711 5713 5715 5717 5719
5752 5748 5745 5741 5738 5734 5731 5727 5724 5720 5716 5713 5709 5706 5703 5700 5698 5696 5694 5693 5692 5691 5690 5689 5688 5688 5688 5688 5688 5689 5689 5690 5692 5693 5695 5696 5698 5700 5702 5704 5705 5707 5709
5747 5743 5740 5736 5733 5729 5726 5723 5719 5716 5712 5708 5704 5701 5698 5696 5693 5691 5690 5688 5687 5686 5684 5683 5683 5682 5682 5681 5681 5681 5681 5682 5683 5684 5686 5688 5689 5691 5692 5694 5696 5697 5700
5743 5739 5735 5732 5728 5725 5722 5718 5715 5711 5708 5704 5700 5697 5694 5692 5689 5687 5685 5684 5682 5680 5679 5678 5677 5676 5675 5675 5674 5674 5674 5674 5675 5676 5677 5678 5680 5681 5683 5685 5686 5688 5691
5739 5735 5731 5728 5724 5721 5718 5715 5711 5708 5704 5700 5697 5694 5690 5688 5685 5683 5681 5679 5677 5675 5674 5672 5671 5670 5669 5668 5668 5667 5667 5667 5667 5668 5669 5670 5671 5673 5674 5675 5677 5679 5681
5735 5731 5728 5725 5721 5718 5715 5712 5708 5704 5701 5697 5694 5690 5687 5684 5681 5678 5676 5674 5672 5670 5668 5666 5665 5664 5663 5662 5661 5661 5660 5660 5660 5661 5661 5662 5663 5664 5665 5667 5668 5670 5672
5731 5728 5725 5721 5718 5715 5712 5709 5705 5701 5698 5694 5690 5687 5683 5680 5677 5674 5671 5669 5667 5665 5663 5661 5660 5658 5657 5656 5655 5655 5654 5654 5653 5653 5654 5655 5655 5656 5657 5658 5660 5662 5664
5728 5725 5722 5719 5715 5712 5709 5705 5701 5698 5694 5690 5687 5683 5680 5676 5672 5669 5667 5664 5662 5660 5658 5656 5654 5653 5651 5650 5650 5649 5649 5648 5648 5647 5647 5648 5648 5649 5650 5651 5653 5654 5656
5725 5722 5719 5715 5712 5709 5706 5702 5698 5695 5691 5687 5683 5680 5676 5672 5669 5666 5663 5660 5657 5654 5652 5650 5649 5647 5646 5645 5644 5643 5643 5643 5642 5641 5641 5641 5642 5642 5643 5644 5645 5647 5649
5723 5719 5716 5712 5709 5706 5703 5699 5695 5692 5688 5683 5680 5676 5672 5668 5664 5661 5658 5655 5652 5649 5646 5644 5643 5641 5640 5639 5638 5637 5637 5636 5636 5636 5635 5635 5635 5635 5636 5637 5638 5639 5641